sat.trackr.live / text

‹ back to catalog

STARLINK-11305 [DTC]

NORAD 61247 · 2024-175E

PAYLOAD ACTIVE UNKNOWN

§ Identity

Operator
Country
US
Launch date
2024-09-25
Launch site
AFWTR
Launch vehicle
Mass (kg)
RCS (m²)

Purposes: comms

External: N2YO · Heavens-Above · Gunter

§ Orbital elements

Epoch: 2026-09-21T21:11:29.779584Z

Period
91.74 min
Inclination
53.1602°
Eccentricity
0.0000741
Mean motion
15.69703853 rev/d
Perigee alt
359.2 km
Apogee alt
360.2 km
Semi-major
6,737.9 km
B*
1.1329e-5
RAAN
168.9008°
Arg perigee
81.7367°
Mean anomaly
278.3735°
Rev number
11,418

§ Raw data

STARLINK-11305 [DTC]1 61247U 24175E   26264.88298356  .00000784  00000+0  11329-4 0  99962 61247  53.1602 168.9008 0000741  81.7367 278.3735 15.69703853114182

JSON: /api/v1/satellites/61247 · /tle

For live sub-satellite position, see the globe view (requires WebGL).

§ Visibility from observer

Set your observer location to see the next 7 days of passes ≥ 10°. The values pass through the URL so the page stays shareable.

No JS? Fill the form by hand. The geolocation button needs JavaScript.